RH
36 35 36 34 44 88 83 69 60 49 41 42 40 35 31 53 80 83 70 71 79 98 93 86 76 83 85 85 90 74 83 87 96 99 99 94 97 86 93 73 86 81 90 93 87 95 89 46 44 36 29 25 36 42
38 33 40 50 52 49 51 56 74 86 87 74 59 51 47 39 48 79 83 81 74 89 72 66 79 94 94 93 98 93 82 90 87 99 99 99 98 98 96 92 70 95 86 80 81 67 45 43 37 37 35 41 48 51
47 58 52 48 56 60 57 57 59 56 71 82 82 80 64 51 47 57 88 92 94 98 85 76 45 39 42 46 60 91 72 78 78 80 83 81 92 89 84 79 75 71 56 72 67 58 59 49 44 45 51 55 56 57
44 43 54 59 59 62 61 65 64 66 71 68 81 79 81 67 61 57 51 54 96 100 98 74 50 62 62 43 56 80 88 91 88 97 98 100 99 96 87 84 96 84 84 90 84 67 53 48 50 55 57 62 61 58
43 50 49 67 65 69 73 69 66 64 64 64 61 64 76 85 84 82 72 63 56 78 94 80 76 34 53 46 41 61 60 67 94 93 93 93 80 80 68 78 84 65 78 85 70 44 49 54 64 59 62 70 65 63
39 39 43 42 46 67 70 68 72 72 69 68 67 60 56 66 88 100 71 84 96 76 97 96 82 67 51 58 62 61 77 83 98 86 80 88 79 94 98 92 59 51 51 52 54 60 81 68 65 69 70 67 62 78
35 32 31 32 35 37 49 74 71 68 68 68 70 71 65 59 73 97 82 76 80 89 93 96 86 56 51 74 83 72 66 84 81 88 82 77 77 80 86 92 59 53 58 64 70 70 74 78 75 72 73 73 87 96
24 24 24 25 27 31 39 56 71 69 66 64 70 70 72 72 71 66 50 54 76 99 97 98 95 73 41 53 59 70 88 100 92 85 89 86 79 82 88 63 64 69 74 76 78 80 98 86 64 54 64 69 76 83
23 23 23 23 23 25 31 50 70 65 68 72 72 74 82 75 68 60 61 72 78 94 91 99 95 94 61 79 97 96 97 97 69 96 83 82 90 90 77 68 92 94 99 99 98 89 79 67 61 66 44 52 77 68
24 24 24 24 24 26 34 65 76 66 67 73 90 90 92 72 69 71 76 87 98 99 97 96 79 87 53 76 80 83 84 94 89 89 79 98 75 58 74 87 93 98 97 91 64 62 45 52 53 38 40 66 50 51
28 26 26 27 27 37 78 81 82 75 75 88 92 89 71 71 73 78 81 98 92 97 99 87 74 76 69 89 93 74 96 97 99 90 96 96 97 90 83 89 77 48 53 52 54 45 49 50 45 40 32 43 49 43
35 32 35 29 30 52 84 83 81 81 90 90 92 90 87 77 87 99 97 90 99 92 72 88 84 90 81 86 98 98 97 97 95 92 97 97 86 86 89 81 77 63 52 47 38 34 30 29 23 25 23 29 39 35
42 42 43 36 35 71 95 79 80 77 80 93 97 98 99 97 97 96 98 96 99 75 69 91 97 91 93 97 99 98 100 94 96 99 94 90 81 79 63 67 64 52 49 41 40 41 38 30 23 23 25 22 28 31
56 66 45 37 41 76 78 70 68 77 95 97 98 97 95 97 94 90 86 79 54 51 62 82 96 96 78 100 98 96 82 97 100 100 93 87 61 52 54 52 60 42 55 61 56 49 44 42 37 29 24 21 27 32
91 86 38 32 58 68 66 62 72 82 98 98 96 94 96 75 66 68 62 62 47 53 66 81 90 84 96 100 95 93 92 90 82 76 70 34 36 41 36 33 36 37 35 35 39 46 48 50 48 41 28 30 31 31
96 87 42 57 74 71 64 71 85 96 97 97 97 99 97 94 85 77 70 63 47 62 77 81 97 100 97 97 100 96 94 79 54 63 31 29 29 28 29 30 34 37 36 39 41 45 48 52 50 46 42 37 37 39
87 62 56 73 76 73 63 83 98 96 96 98 100 92 79 72 75 62 58 58 55 67 87 89 100 88 93 100 100 92 84 55 46 42 40 36 34 32 31 35 38 40 42 45 48 49 50 46 50 55 56 52 56 56
84 75 83 80 80 79 76 91 97 97 97 94 88 59 67 62 60 60 57 58 69 72 70 88 62 92 90 95 88 61 48 44 46 49 47 46 44 42 40 44 46 48 48 46 48 49 50 53 54 51 53 52 56 60
80 82 82 81 78 94 88 97 98 96 80 67 63 58 64 62 57 51 54 54 67 75 79 97 96 97 81 59 61 56 58 65 64 54 55 55 52 52 52 52 51 51 50 50 54 58 59 57 56 55 55 58 63 64
87 84 81 77 82 97 93 95 96 95 100 66 61 61 64 62 57 59 59 58 78 90 96 97 79 61 59 53 52 54 53 53 55 57 57 56 56 57 57 56 55 56 59 61 63 66 70 67 57 49 51 60 73 79
90 81 83 86 90 98 95 80 96 100 82 81 56 59 65 67 68 65 71 64 91 95 93 66 64 61 51 54 56 57 57 57 59 61 62 63 61 61 62 63 63 66 72 69 68 61 71 70 59 67 76 77 82 87
84 88 92 86 96 97 96 96 92 89 81 82 85 84 85 91 78 68 66 74 76 62 62 62 60 57 58 59 53 56 64 64 63 65 67 70 72 70 68 61 64 63 60 57 60 61 67 72 72 76 82 86 90 95
97 97 98 94 97 96 83 87 99 86 98 91 97 99 100 97 61 67 74 67 56 45 44 53 51 46 59 54 56 58 54 58 67 66 64 64 63 63 62 57 54 55 58 60 61 69 75 73 83 90 97 97 98 97
96 95 93 97 96 93 98 99 100 100 100 99 100 100 96 95 82 91 94 58 49 46 51 49 54 61 60 64 68 58 45 42 60 61 49 51 58 45 42 49 54 59 62 64 69 72 76 82 94 97 97 97 98 97
97 98 93 97 97 96 98 98 97 97 95 99 100 97 92 92 100 100 100 54 50 52 52 53 54 55 64 56 50 44 32 43 46 47 38 37 45 52 58 62 66 70 72 81 93 96 94 95 100 100 98 98 98 96
96 80 95 91 97 93 95 97 98 95 96 99 98 88 99 98 99 92 89 44 46 42 39 39 40 44 45 40 48 40 35 36 41 52 54 56 59 65 70 76 80 80 87 97 97 97 97 98 98 97 96 95 97 98
96 97 95 88 83 92 95 91 85 93 97 96 95 100 100 96 95 79 35 31 33 30 31 32 33 36 39 45 48 50 51 54 56 57 61 66 71 76 86 95 98 94 97 97 97 98 98 97 97 97 97 95 96 98
86 84 96 99 97 87 90 98 97 100 92 79 87 98 89 87 67 35 33 32 34 35 37 39 41 44 50 55 63 68 70 72 77 83 87 85 86 95 96 96 97 97 96 96 96 96 97 97 97 97 98 99 99 100
94 79 74 97 100 100 92 88 88 67 53 64 86 82 75 41 38 39 39 41 45 50 56 60 64 74 82 89 94 96 97 97 100 97 98 100 100 96 96 96 96 96 97 96 96 97 97 97 100 99 92 97 99 100
94 68 82 96 98 98 75 68 57 45 48 50 51 53 53 50 42 44 54 55 63 72 78 88 95 96 96 97 95 91 92 95 96 98 99 98 95 95 96 96 96 97 97 96 97 97 98 98 98 99 100 100 99 100
66 76 85 88 94 57 55 54 52 54 59 60 59 67 61 58 53 50 52 54 82 95 96 95 94 96 96 95 95 95 90 93 96 97 98 97 96 96 96 97 97 97 96 97 97 98 98 99 99 100 100 100 99 100
79 82 91 100 95 63 60 62 62 60 56 58 55 53 56 61 61 51 56 85 96 96 96 90 93 94 95 96 96 96 96 96 96 96 96 96 96 96 97 97 97 98 97 97 97 98 98 99 99 99 99 100 100 100
98 91 90 74 68 69 62 59 66 76 72 67 51 48 53 56 76 71 75 91 95 95 83 75 85 95 93 96 96 96 96 96 96 97 97 98 99 98 96 95 95 96 96 97 97 99 99 99 99 100 99 98 99 99
Wind_Speed
17 15 14 14 13 11 11 11 12 12 11 11 11 11 10 10 10 12 11 11 13 13 22 30 33 27 22 17 9 11 7 2 1 3 3 3 3 3 3 1 4 6 7 5 4 5 8 8 1 4 4 11 21 25
16 15 14 12 12 13 13 12 11 11 12 11 12 11 11 10 10 12 13 10 12 16 19 22 22 21 22 26 22 10 13 5 5 3 2 2 3 3 3 9 2 4 7 4 9 8 7 7 14 28 31 26 21 23
14 13 12 11 11 12 10 11 11 11 11 11 12 13 13 11 11 12 14 14 16 16 26 17 5 7 17 30 35 21 26 27 23 30 18 10 13 1 12 9 10 6 9 4 5 6 22 26 33 39 31 24 31 35
13 12 11 10 10 10 10 9 10 11 12 11 12 12 13 12 13 13 14 16 14 10 7 10 11 11 7 13 22 27 33 31 27 22 10 4 3 9 4 7 6 2 2 7 10 15 28 28 30 18 33 37 44 50
13 12 11 11 10 10 11 10 10 11 12 13 13 14 14 14 15 16 17 21 19 15 6 17 31 33 11 19 33 30 33 32 22 16 8 9 7 6 13 13 15 23 17 9 19 29 28 29 34 36 40 39 38 38
14 14 13 10 10 10 10 11 12 13 13 14 14 15 16 15 16 17 8 3 7 7 6 4 7 15 35 35 28 27 22 17 14 8 10 15 22 10 5 7 9 28 28 32 32 30 31 38 34 35 33 30 38 34
13 11 9 9 9 9 11 13 14 15 15 16 16 17 18 16 17 14 7 8 15 7 5 8 9 6 10 10 7 7 10 16 21 12 13 20 24 20 9 17 30 34 32 33 37 28 22 23 21 25 25 26 28 28
13 12 11 10 10 11 13 13 15 15 16 17 18 19 20 20 21 25 26 24 23 21 8 3 5 8 12 8 6 6 4 6 10 10 4 5 12 9 8 20 20 13 12 13 11 17 21 15 15 18 20 24 26 27
15 13 12 11 12 13 15 15 16 16 16 17 18 19 21 20 16 13 13 14 14 17 5 6 2 4 4 5 3 5 5 3 8 4 5 6 3 6 8 6 2 10 8 12 13 14 16 18 20 22 27 29 29 30
17 15 14 14 14 16 17 16 17 17 16 16 16 9 5 7 9 11 7 6 8 12 11 6 12 7 7 1 3 4 5 3 3 5 5 4 8 30 11 7 4 2 9 14 14 18 19 18 22 27 29 29 30 30
20 18 17 16 17 18 17 17 17 16 15 14 6 8 11 11 11 5 5 4 5 4 7 10 19 11 10 4 4 10 3 3 3 3 2 3 4 2 10 7 2 2 8 13 15 18 20 23 26 27 32 30 31 30
23 21 19 18 18 18 18 18 18 17 16 10 13 14 13 6 7 3 3 2 3 4 5 5 8 9 7 9 7 6 3 1 4 2 2 3 3 8 6 3 5 11 14 13 14 20 24 25 28 30 31 33 31 31
26 23 21 20 19 18 18 19 19 19 17 18 11 5 5 6 5 5 6 3 3 5 6 7 4 5 5 6 6 2 1 5 2 3 4 4 9 15 14 17 19 15 15 14 23 22 25 30 31 31 34 34 32 32
28 24 22 21 20 19 19 20 20 18 15 8 8 8 7 4 5 6 6 6 16 8 10 6 5 5 6 4 3 4 5 2 2 1 5 4 20 15 16 20 21 27 23 28 31 31 33 33 34 34 33 35 35 37
27 24 23 22 20 19 20 21 21 19 16 11 8 6 6 11 9 10 20 17 22 20 13 5 7 7 3 3 4 2 3 5 6 5 4 20 20 19 20 24 28 29 32 36 33 36 38 35 37 37 35 35 38 40
25 21 25 21 20 21 21 21 20 22 10 10 10 3 4 1 9 14 17 21 26 20 8 6 3 1 5 3 2 7 3 6 7 5 27 36 38 32 38 39 42 40 42 40 37 36 35 37 36 35 38 39 40 42
21 28 23 21 21 20 20 19 21 13 7 5 7 16 18 17 16 23 24 27 26 14 4 4 4 8 1 2 3 3 6 11 21 27 34 40 40 42 44 45 45 45 44 42 40 38 37 36 37 38 41 42 43 40
26 25 22 21 20 19 21 20 10 8 8 10 6 19 20 21 24 25 29 30 22 18 16 7 7 6 6 5 6 9 28 39 41 37 38 39 41 44 44 46 46 45 43 42 41 40 40 40 39 37 36 35 38 38
25 23 22 20 18 16 7 9 16 8 17 13 17 22 23 24 28 31 31 32 29 26 8 5 5 4 6 12 19 33 34 32 34 39 38 36 41 43 44 41 42 43 44 45 44 44 43 42 44 42 39 38 38 36
22 23 21 20 17 13 8 8 12 7 6 12 23 28 28 25 29 28 31 32 25 10 7 5 7 23 30 39 41 41 43 43 36 33 38 40 38 37 38 40 43 45 44 45 45 43 40 42 41 41 41 37 35 37
21 23 21 20 21 22 9 8 11 7 6 8 13 20 13 18 21 28 30 28 11 7 5 26 34 40 46 46 43 42 41 38 37 38 39 39 42 39 41 41 43 42 40 40 39 42 37 40 43 39 36 36 36 33
23 20 21 19 11 9 12 11 6 6 7 8 6 8 6 7 17 28 20 10 13 32 34 37 42 43 41 41 47 45 40 41 43 44 44 42 40 39 40 42 39 41 41 41 40 43 42 40 39 37 37 37 36 34
20 17 14 12 11 9 5 12 10 8 3 5 5 2 4 7 13 13 7 14 24 38 42 42 47 50 45 48 48 49 50 51 46 44 45 44 43 42 43 44 42 43 44 41 39 40 42 42 37 34 34 36 37 35
19 12 8 9 16 5 9 9 8 6 5 2 3 4 5 8 4 5 4 18 41 42 37 43 39 36 39 38 37 44 43 42 41 41 41 42 41 43 44 45 43 41 41 44 41 41 39 36 34 35 38 37 37 30
9 10 9 6 10 6 5 4 4 3 5 4 4 4 4 6 2 3 5 21 37 35 38 38 37 37 33 40 42 40 37 37 40 42 43 43 46 45 44 43 41 39 37 38 38 39 41 42 38 38 31 28 29 31
7 13 9 10 8 7 6 6 7 7 4 5 7 4 3 3 2 6 5 28 30 34 37 39 40 39 39 41 40 43 46 47 45 44 44 39 39 39 41 40 39 39 35 36 37 38 38 36 27 28 31 29 24 22
6 6 8 9 8 8 3 2 4 3 6 8 3 4 3 4 7 6 29 31 32 35 36 39 39 39 42 44 45 46 45 42 42 46 45 43 43 40 38 42 44 42 35 32 31 31 31 30 28 26 24 20 17 16
7 15 8 13 7 10 5 4 6 7 5 8 7 4 7 9 8 28 36 44 46 48 49 48 49 51 52 50 44 41 41 40 41 42 42 40 36 32 30 29 27 26 26 26 24 23 23 24 23 20 17 15 13 10
7 12 18 6 4 6 11 9 7 13 13 12 5 5 8 29 38 43 50 50 52 50 49 49 46 36 35 38 41 38 34 31 30 33 34 34 29 26 26 27 26 24 21 18 17 17 18 17 16 16 17 14 10 9
11 22 9 6 7 8 14 20 20 24 23 28 31 29 32 41 50 47 43 46 41 36 34 35 37 34 28 31 32 30 26 24 21 21 27 30 30 27 28 24 22 21 20 18 19 17 9 8 9 11 13 13 12 11
20 23 7 10 6 20 23 21 23 26 26 28 31 30 38 41 43 38 29 25 27 27 25 23 24 29 27 26 25 27 27 18 16 14 16 20 22 22 20 20 20 21 21 19 16 12 7 7 12 12 12 12 12 14
20 18 6 5 6 13 9 6 8 10 19 22 28 29 26 19 14 15 14 21 17 15 19 27 28 28 24 18 18 16 16 17 16 17 16 16 16 17 19 20 23 22 18 16 11 7 4 7 11 13 13 12 12 13
4 4 4 2 2 3 6 5 4 5 7 8 17 25 21 8 5 7 17 15 14 20 29 26 27 24 17 18 13 14 16 16 15 14 13 13 14 17 21 22 19 15 13 10 6 1 3 6 9 11 12 12 12 14
Wind_Direction
273 275 277 277 283 293 301 305 307 309 312 315 312 306 295 285 301 305 290 281 271 263 268 266 266 264 259 276 278 281 324 249 45 217 248 234 244 220 307 288 194 197 180 206 210 236 277 247 161 197 248 309 331 326
257 261 264 273 278 281 289 292 296 307 316 318 317 317 310 297 275 285 293 296 277 269 261 270 261 251 259 263 258 261 256 229 249 233 231 268 276 211 252 278 197 226 206 221 202 213 262 245 265 281 287 300 310 319
254 259 261 267 276 286 292 299 303 301 298 308 318 321 321 318 303 276 278 283 290 294 301 281 307 273 273 253 253 251 255 252 253 257 273 263 251 271 267 261 253 232 237 238 266 229 250 275 301 297 305 315 315 313
243 248 258 264 271 280 288 298 305 306 305 291 291 297 308 317 313 303 293 284 275 279 272 289 290 269 267 254 248 242 254 257 259 271 259 246 239 198 257 287 242 240 163 249 261 272 283 285 285 301 304 303 307 306
250 252 251 261 269 280 291 300 303 303 302 302 299 290 292 299 303 300 304 296 269 242 279 289 288 289 314 263 247 251 262 259 253 256 249 265 258 267 265 267 257 247 245 253 272 281 283 292 294 299 302 300 300 305
251 253 258 262 269 274 280 295 298 297 299 301 303 299 292 291 300 303 311 15 45 250 271 284 284 271 287 280 270 261 259 248 222 230 242 239 251 222 238 250 253 271 273 267 271 293 296 288 294 298 298 296 300 304
243 247 253 263 269 277 277 279 283 289 295 296 296 298 299 293 284 275 256 285 299 292 276 295 295 275 294 295 274 278 276 228 229 233 237 246 249 247 265 267 278 280 281 282 295 302 300 307 306 300 308 310 306 309
241 245 251 261 269 273 276 277 280 284 288 289 290 292 290 291 287 281 276 277 275 263 235 248 272 309 265 259 270 258 266 218 222 236 257 246 266 233 254 263 273 286 285 291 291 300 298 323 334 329 331 329 322 321
242 246 251 261 272 278 278 277 280 282 284 285 288 290 293 292 279 275 284 273 243 215 226 214 188 266 247 248 271 291 253 263 257 233 231 236 222 236 231 263 348 327 339 355 352 338 337 336 332 326 335 328 318 321
245 250 254 262 270 275 276 275 277 280 283 288 290 298 260 222 257 287 276 228 209 212 222 237 226 243 257 260 283 291 235 231 254 235 192 221 246 248 257 253 286 21 13 13 3 351 336 334 343 334 325 326 326 322
247 251 255 262 268 270 271 273 275 282 280 280 256 233 254 266 280 246 243 212 219 252 209 239 230 248 259 202 220 214 232 234 230 271 248 238 269 206 157 114 357 2 334 313 312 317 314 307 309 322 322 325 326 330
247 250 254 261 264 265 266 269 273 270 263 267 265 266 257 234 205 183 215 253 223 235 225 222 240 228 241 232 233 219 260 192 260 184 256 274 259 151 146 150 329 301 290 290 318 316 315 311 317 317 317 318 323 326
244 247 252 257 261 263 267 270 269 269 273 267 261 250 196 187 196 201 207 251 244 225 231 224 258 245 233 249 263 295 325 232 100 231 224 219 196 198 216 225 308 296 271 288 311 316 319 311 309 309 311 314 319 320
239 242 247 254 259 263 267 270 268 264 258 231 226 219 190 208 212 196 196 202 232 246 260 265 262 232 259 202 215 248 241 87 321 295 239 242 228 249 264 283 296 311 295 290 296 302 310 310 308 304 304 309 315 315
232 237 246 252 256 262 265 266 261 253 248 218 212 231 215 223 223 230 233 240 250 260 254 258 256 225 243 258 207 273 290 240 202 219 239 279 287 282 291 294 297 295 305 310 309 307 307 307 307 304 301 305 308 311
226 237 243 249 255 261 264 266 261 251 235 218 218 205 222 262 254 244 242 247 262 261 269 240 251 266 253 221 164 232 184 227 257 253 277 284 292 288 303 306 307 305 306 308 308 306 307 305 304 302 304 301 304 309
220 236 241 248 254 262 264 259 254 224 226 222 229 220 230 244 251 259 265 267 274 256 234 223 209 226 7 246 241 208 228 263 264 274 279 283 288 293 299 305 305 302 303 306 306 305 303 304 303 303 300 300 301 301
221 233 242 252 258 267 265 247 224 220 222 213 198 243 242 251 259 264 270 272 255 242 251 249 250 221 248 243 256 261 268 271 275 275 280 284 288 291 294 297 301 299 298 298 299 300 301 299 301 299 302 309 310 300
225 234 243 249 254 246 250 234 211 216 217 229 238 250 251 257 260 268 275 277 269 259 239 223 242 207 235 251 258 265 270 268 270 280 284 282 284 287 290 294 295 293 292 296 299 298 298 296 294 293 293 297 304 304
229 238 244 248 244 234 240 225 200 215 208 234 245 250 251 255 269 269 271 272 258 235 216 219 244 257 255 258 260 263 267 273 277 279 280 282 285 285 286 287 287 290 290 291 293 294 294 295 298 294 294 295 299 299
233 240 243 246 247 238 229 217 207 212 215 207 244 243 246 250 250 252 257 269 228 218 231 248 251 257 262 263 266 269 271 274 273 271 275 281 282 284 283 283 283 283 282 285 286 289 282 278 290 288 283 284 295 297
236 240 246 248 236 222 227 212 202 192 223 239 233 222 233 235 243 250 257 225 236 252 253 253 254 257 262 267 274 278 276 279 280 278 278 277 276 278 278 282 283 282 284 286 287 286 284 282 285 286 285 285 295 299
233 233 227 221 213 213 230 212 191 200 191 222 195 192 248 235 250 262 224 242 255 269 268 260 265 273 269 276 280 282 285 284 278 278 280 281 282 282 282 285 286 285 284 285 288 285 282 286 281 276 273 274 288 292
226 216 225 211 192 211 172 193 202 194 217 161 171 237 259 227 236 200 239 259 263 270 268 269 271 275 282 280 277 282 292 294 284 286 294 292 286 292 297 292 288 283 283 287 284 282 280 277 276 276 279 276 283 281
222 200 201 210 189 165 172 177 176 170 234 204 184 257 249 194 173 235 236 269 272 272 274 280 283 281 270 278 286 291 301 294 292 289 298 296 293 291 288 287 284 284 287 282 277 275 275 280 278 278 271 281 277 287
207 207 207 190 175 162 176 175 194 210 169 197 230 226 140 131 172 242 238 266 274 282 288 288 287 286 287 292 287 293 300 304 299 289 290 290 289 285 285 286 288 287 287 281 280 280 282 282 267 276 287 284 280 272
202 205 191 189 172 153 154 180 164 160 189 205 220 152 152 216 231 243 268 284 286 294 298 298 294 290 290 292 292 291 292 291 287 288 293 292 291 289 281 281 284 294 302 299 297 294 287 286 285 282 280 273 272 272
206 176 164 181 181 189 167 172 179 204 220 207 139 188 196 207 236 274 287 291 294 297 298 297 295 295 297 299 299 298 297 298 297 296 295 295 298 299 300 301 301 302 301 298 292 284 280 279 281 270 247 252 267 262
176 182 185 165 142 197 210 192 209 223 227 196 191 233 242 264 281 286 289 293 297 296 294 296 300 302 297 297 298 300 299 299 300 299 297 296 302 302 310 316 318 320 317 308 304 300 290 280 266 241 226 225 251 248
179 184 165 159 174 219 224 212 236 251 254 253 254 262 271 276 286 296 293 297 297 294 293 294 298 305 312 315 313 309 306 304 298 286 288 291 297 307 317 322 325 330 327 318 314 315 299 248 213 203 213 233 229 217
183 181 173 178 218 235 244 249 253 259 262 267 271 267 270 285 292 300 296 295 298 300 305 312 317 325 324 324 323 322 325 335 330 318 304 300 305 313 322 328 328 330 329 327 322 317 298 223 208 207 205 205 205 207
175 183 162 192 255 234 235 239 240 246 259 263 270 277 279 279 280 284 304 311 310 317 325 331 329 329 330 326 328 330 330 333 334 334 334 330 329 332 335 329 326 325 324 324 321 315 250 199 196 200 202 201 201 199
147 161 168 179 180 223 203 201 245 283 252 253 267 276 270 254 250 297 303 303 318 330 333 335 334 333 335 335 338 346 341 336 336 338 336 331 320 315 315 319 325 331 331 327 324 2 157 177 182 189 196 194 195 197